Powrót do katalogu

SL-12 DEB

LostHEO
NORAD 43608·DEBRIS·🇷🇺 Russia

Wystrzelony Mar 1, 2010 z Baikonur Cosmodrome

Loading…

Następne Przeloty (najbliższe 24 godziny)

TLE

NieaktualneSource: Space-Track

Epoka: Mar 25, 2022, 06:06 UTC

1 43608U 10007AK  22084.25452524  .00000090  00000-0  13923-2 0  9993
2 43608  65.7229  70.0972 5566280 320.4853   9.8908  4.20182510 57342

Śledź SL-12 DEB w czasie rzeczywistym z AllMySat

Download on the App Store